Showing default

CENTISPACE-1 S15, 62584

Orbit data source: Space-Track

CENTISPACE-1 S15, 62584 is a payload satellite owned by Centispace (CN) in LEO that was launched on Mon, 13 Jan 2025 UTC via a JIELONG-3 launch vehicle from the Yellow Sea Launch Area, China (YSLA). Payload-class satellites include a variety of spacecraft equipped with specific instruments for various scientific and technological missions. These include communications satellites like Starlink; space stations such as the ISS; scientific satellites like the Hubble; Earth observation satellites from companies like Planet Labs, Umbra, and HawkEye 360; GPS; miniature CubeSats for education and research; and military/defense satellites.

Loading next visibility...
Identifier
62584, 2025-007K
Orbit
LEO
Country
Flag of CNCN / PRC
Related business
Manufacturer
HITSAT
Mission
Operational Commercial Nav/Com
Bus & Motor
WK01H, Unknown motor
Mass
140 kg wet, 140 kg dry
Launch date (UTC)
2025-01-13 (8 months ago)
Launch vehicle
JIELONG-3
Launch site
Yellow Sea Launch Area, China (YSLA)
Object type
Payload
Rocket body
Debris
Shape & HBR
Box + 2 Pan, 1.0 m
Radar Cross Section
0.833 m², Large (>1 m²)

Expand to show TLE details & history
Last TLE update: 8 hours ago

TLE from 8 hours ago
0 CENTISPACE-1 S15
1 62584U 25007K   25261.30667356  .00000581  00000-0  18924-3 0  9992
2 62584  54.9823 203.0164 0008205 303.0961  56.9239 14.50870597 36505
Epoch: 2025-09-18T07:21Z
TLE epoch observation values (Epoch: 2025-09-18T07:21:36.595Z)
Latitude
-0.00005°
Longitude
95.14373°
Altitude
720.686 km
Speed
7.498 km/s
True Right ascension
13h 32m 03s
True Declination
0° 00' 00"
Sunlit
Object was in daylight at epoch
Visualization orbit readout
Latitude
Unknown
Longitude
Unknown
Altitude
Unknown
Speed
Unknown
Apparent Right ascension
Unknown
Apparent Declination
Unknown
Sunlit
N/A
Visualization observer readout
Local Sidereal Time
07:53:59
Azimuth
Unknown
Elevation
Unknown
Doppler factor
Unknown
Orbital elements
Apogee altitude
728.599 km
Perigee altitude
716.947 km
Semi-major axis
7,100.91 km
Eccentricity
0.00082
Inclination
54.9823°
RAAN
203.0164°
Arg. of periapsis
303.0961°
True anomaly
57.00273°
Mean anomaly
56.9239°
Eccentric anomaly
56.96331°
Mean motion
3.62721 °/min
Orbital period
99.25 mins
BSTAR
0.00018924
Loading maneuver chart data...
Computing Atmospheric mass density...
Loading historical data...
Loading historical data...
Loading historical data...
Loading historical data...
Loading historical data...
Loading historical data...
Loading historical data...

Documentation

Showing up to 5 results
|